Location: Newark
(45.5167°N, 11.1667°E)
Time: 20:13:22
(UTC+00:00)

Explorer 7 - Pass Details

Date: 24 December 2019
Orbit: 485 x 679 km, 50.3° (Epoch: 25 January)

Event Time Altitude Azimuth Distance (km) Brightness Sun altitude
Rises 12:37:35 0° 278° (W) 2,902 10.7 18.5°
Reaches altitude 10° 12:39:56 10° 284° (WNW) 2,025 9.9 18.4°
Maximum altitude 12:44:28 47° 359° (N) 876 7.7 18.1°
Drops below altitude 10° 12:49:10 10° 73° (ENE) 2,104 9.5 17.8°
Sets 12:51:39 0° 79° (E) 3,029 10.3 17.6°
